Location: Heilwood
(40.6210°N, 78.9150°W)
Time: 04:48:39
(UTC-05:00)

Daily predictions for brighter satellites

Satellite Brightness Start Highest point End
(mag) Time Altitude Azimuth Time Altitude Azimuth Time Altitude Azimuth
SL-16 R/B 2.3 04:57:16 70° SE 04:57:16 70° SE 05:02:16 10° SSE
OAO 2 Rocket 4.4 04:59:36 36° SSE 04:59:36 36° SSE 05:03:03 10° ESE
SeaSat 1 4.2 04:55:17 10° NNE 04:57:03 22° NNE 04:57:03 22° NNE
Cosmos 1816 Rocket 4.4 04:59:05 39° N 05:01:40 87° E 05:07:54 10° S
Cosmos 2297 Rocket 3.6 05:05:23 25° N 05:05:23 25° N 05:07:49 10° NNE
ISS -0.5 05:09:16 16° SE 05:09:16 16° SE 05:10:04 10° SE
Cosmos 968 Rocket 3.5 05:06:47 76° SE 05:07:02 79° ESE 05:12:19 10° NNE
USA 229 DEB 3.7 05:13:19 58° W 05:13:58 60° WSW 05:21:03 10° SSE
USA 229 3.7 05:13:22 58° W 05:14:04 61° WSW 05:21:10 10° SSE
Cosmos 2227 Rocket 4.0 05:18:50 17° N 05:18:50 17° N 05:20:27 10° N
Tsikada Rocket 4.1 05:19:15 54° WSW 05:19:15 54° WSW 05:24:44 10° SSW
Meteor 1-16 Rocket 4.2 05:18:36 10° S 05:24:00 73° E 05:29:18 10° NNE
SKYMED 2 3.7 05:21:48 10° SSE 05:26:07 74° ENE 05:27:31 42° N
Cosmos 1271 Rocket 3.3 05:22:50 10° S 05:26:34 55° E 05:30:17 10° NNE
Feng Yun 1-1 Rocket 4.3 05:21:18 10° N 05:26:08 54° NW 05:26:08 54° NW
Cosmos 2058 3.8 05:24:24 18° N 05:27:16 48° E 05:31:17 10° SSE
NOSS 3-1 (A) 4.4 05:22:15 21° NNW 05:27:42 65° NE 05:36:00 10° SE
PSLV R/B 4.3 05:29:06 45° ESE 05:29:06 45° ESE 05:31:38 10° E
NOAA 6 3.9 05:24:04 10° NNE 05:29:17 81° WNW 05:34:28 10° SSW
ATLAS 2AS CENTAUR R/B 4.5 05:28:50 10° NNW 05:35:45 29° NE 05:42:21 10° E
Cosmos 1340 Rocket 3.2 05:34:58 25° N 05:37:05 62° E 05:41:01 10° SSE
Cosmos 2221 3.2 05:33:39 10° S 05:37:53 55° E 05:42:06 10° NNE
SL-14 R/B 3.2 05:41:34 53° NNW 05:42:26 78° W 05:46:29 10° S
SL-24 R/B 4.5 05:38:47 10° N 05:43:42 73° WNW 05:49:32 10° SSW
Cosmos 1777 Rocket 3.9 05:42:13 10° SSW 05:47:26 87° WNW 05:52:40 10° NNE
Cosmos 1356 Rocket 4.4 05:46:08 10° N 05:50:06 46° ENE 05:54:07 10° SSE
Cosmos 1072 Rocket 4.4 05:48:02 10° S 05:54:13 88° W 06:00:23 10° N
Tiangong 2 2.9 05:53:43 20° SSW 05:55:03 28° SSE 05:57:49 10° E
USA 234 4.1 05:50:09 10° E 05:56:15 43° NNE 06:01:28 14° NW
Meteor 2-1 Rocket 4.2 05:54:06 10° S 05:59:42 86° W 06:05:30 10° N
ERBS 2.5 05:59:49 47° WSW 06:00:01 48° SW 06:03:19 10° SSE
Cosmos 2263 Rocket 3.8 05:55:33 10° S 06:00:42 37° ESE 06:05:54 10° NE
Cosmos 1603 3.6 05:56:06 15° NNW 06:00:50 80° WSW 06:06:29 10° SSE
Cosmos 2151 3.1 05:59:21 30° NW 06:01:01 47° W 06:05:05 10° SSW
Aureole 1 4.2 06:01:28 20° SSW 06:03:29 68° WNW 06:07:08 10° NNE
NOSS 3-1 (C) 4.1 06:01:36 17° NW 06:07:44 65° WSW 06:16:00 10° SSE
DELTA 2 R/B (1) 3.9 06:04:53 18° WSW 06:08:56 62° SSE 06:14:27 10° E
Cosmos 1908 4.3 06:09:51 10° SSE 06:13:31 46° E 06:17:12 10° NNE
COSMO-SKYMED 1 3.3 06:10:22 10° SSW 06:14:14 32° W 06:16:07 22° NW
CZ-2C R/B 3.0 06:13:45 10° NNE 06:18:15 54° E 06:22:43 10° S
CSL-04 Rocket 3.5 06:14:11 10° N 06:19:29 72° WNW 06:24:43 10° SSW
IDEFIX/ARIANE 42P 3.2 06:14:21 10° NNE 06:19:34 59° E 06:24:46 10° S
Cosmos 1805 Rocket 3.5 06:16:30 10° NNW 06:20:53 69° W 06:25:13 10° S
TELKOM 3 4.2 06:21:13 28° NNW 06:21:14 28° NNW 06:23:14 10° NE
CZ-4 R/B 1.8 06:18:49 10° NNE 06:22:53 67° ESE 06:26:59 10° S
Ariane Rocket 3.1 06:18:16 10° N 06:23:14 54° WNW 06:28:11 10° SSW
Cosmos 923 Rocket 4.0 06:18:49 10° NNW 06:24:01 67° WSW 06:29:13 10° S
Cosmos 2228 Rocket 4.0 06:22:08 10° S 06:26:26 53° E 06:30:45 10° NNE
Genesis I 3.9 06:24:37 22° WNW 06:26:32 35° WSW 06:30:07 10° S
SL-8 R/B 3.7 06:25:32 19° WNW 06:29:02 85° SSW 06:33:49 10° SE
Cosmos 1680 Rocket 3.5 06:26:46 10° NNW 06:32:05 74° WSW 06:37:22 10° S
GPS 2-05 Rocket1 4.0 06:30:13 14° WSW 06:32:32 32° S 06:35:32 10° ESE
CZ-3 Stage 3 4.0 06:29:11 10° WSW 06:33:50 34° S 06:50:41 10° ESE
Cosmos 1898 Rocket 4.5 06:29:44 10° S 06:34:47 52° ESE 06:39:56 10° NNE
SeaSat 1 4.4 06:35:44 10° NNW 06:36:48 11° NW 06:36:51 11° NW
AQUARIUS 4.3 06:34:01 10° NNE 06:38:32 80° ESE 06:43:02 10° S
SL-16 R/B 3.9 06:39:14 12° W 06:39:52 12° W 06:42:08 10° WSW
Sich 1 3.0 06:37:21 10° NNW 06:41:40 63° W 06:45:54 10° S
Cosmos 1633 Rocket 3.0 06:42:31 10° NNW 06:46:50 63° W 06:51:06 10° S
Coronas F rocket 1.2 06:45:08 10° NNW 06:47:27 46° W 06:49:46 10° S
PAYLOAD A 4.1 06:42:44 10° N 06:47:34 50° WNW 06:52:12 10° SW
Cosmos 2034 Rocket 4.2 06:43:24 10° SSW 06:49:20 48° WNW 06:55:23 10° N
Cosmos 1328 Rocket 3.5 06:45:09 10° S 06:49:29 88° W 06:53:53 10° N
MSX 4.2 06:45:11 10° NNE 06:50:58 73° ESE 06:56:44 10° S
Nadezhda 4 Rocket 4.0 06:46:38 10° NNW 06:52:54 66° W 06:59:06 10° S
Cosmos 1703 4.3 06:50:35 10° NW 06:53:49 25° W 06:57:03 10° SW
Cosmos 389 Rocket 2.8 06:51:09 10° SSW 06:54:41 46° WNW 06:58:15 10° N
Cosmos 1515 Rocket 3.7 06:53:50 10° S 06:58:14 85° E 07:02:41 10° N
Cosmos 1151 Rocket 3.7 06:57:12 10° S 07:01:24 60° E 07:05:37 10° NNE
Gbstr 26 Del rocket 3.9 06:56:49 10° SW 07:02:21 90° SW 07:09:18 10° NE
Cosmos 1626 3.3 06:59:31 10° NW 07:02:33 24° W 07:05:35 10° SW
CZ-4 R/B 4.4 06:59:20 10° N 07:03:28 79° WNW 07:07:35 10° SSW
Cosmos 2344 3.7 06:57:07 10° SW 07:04:47 77° NW 07:13:28 10° NNE
OPS 8737 4.4 07:01:58 10° SW 07:05:15 51° NW 07:08:22 10° NNE
Cosmos 1937 Rocket 3.8 07:01:36 10° S 07:06:43 72° ESE 07:11:50 10° NNE
MOS 1 4.3 07:01:39 10° N 07:07:21 74° WNW 07:13:01 10° SSW
